Temp
55 55 55 55 56 56 56 57 56 56 57 57 57 57 57 57 56 62 62 63 59 58 59 57 55 51 52 52 44 48 47 46 53 50 52 54 54 57 54 56 55 55 53 55 57 54 50 64 66 56 50 55 54 58
55 55 55 55 55 56 56 56 56 56 56 57 57 57 56 56 56 56 63 66 64 59 59 61 62 62 60 60 57 57 50 48 52 48 57 57 55 58 53 51 59 52 59 55 58 57 61 65 55 55 55 52 54 57
55 55 55 55 55 55 56 56 56 56 56 56 57 57 56 55 55 57 64 62 63 60 61 62 60 63 67 64 68 51 58 55 56 57 53 55 49 57 53 56 54 58 61 58 57 62 62 65 66 62 57 55 58 60
54 54 55 55 55 55 56 56 56 56 56 56 56 56 55 54 54 55 63 63 63 59 55 57 68 61 65 66 63 65 61 61 62 60 60 59 55 58 57 56 54 60 59 57 58 63 62 66 64 66 65 64 59 59
54 54 54 55 55 55 56 55 55 55 55 55 55 55 55 54 53 60 65 62 62 56 54 56 62 60 65 64 61 62 63 61 60 56 59 54 62 57 60 58 55 62 57 56 56 59 56 60 64 66 64 62 61 59
54 54 53 54 55 55 55 55 55 55 55 55 55 55 54 54 53 62 56 61 65 62 56 52 61 54 59 62 60 59 63 63 63 59 56 64 60 56 49 50 58 60 61 62 58 63 62 63 64 66 65 63 63 60
54 54 54 53 54 54 55 54 55 55 55 55 54 54 54 53 61 60 57 59 55 62 55 52 49 53 55 57 63 63 63 65 61 59 57 59 60 55 50 48 57 58 58 59 63 62 59 63 63 66 65 66 64 66
54 54 54 54 54 54 54 54 54 54 54 54 54 54 54 53 53 58 62 57 57 57 60 44 42 47 51 48 48 63 54 60 57 58 60 53 53 51 41 50 51 51 53 53 57 63 64 66 66 66 67 66 63 64
54 54 54 54 53 53 54 54 53 54 54 54 54 54 57 56 53 55 55 54 62 54 50 54 40 37 50 45 55 58 60 47 60 48 45 45 42 38 41 41 40 43 43 46 53 56 58 62 63 64 64 65 61 63
54 54 54 54 54 53 53 54 53 53 53 54 57 54 51 56 55 54 50 49 51 55 50 52 55 44 48 45 46 48 54 41 38 44 44 39 39 44 43 43 45 46 47 47 43 46 55 57 61 63 62 66 64 62
54 54 54 54 54 53 53 53 53 52 51 62 58 55 58 55 53 54 47 48 51 46 57 61 59 56 51 44 44 45 41 41 37 45 42 40 37 46 48 46 48 46 48 51 51 55 59 64 63 63 63 63 63 58
53 53 53 53 53 53 53 53 53 57 65 58 59 58 57 54 52 48 48 44 38 44 56 59 60 60 53 51 46 45 48 49 40 53 45 40 47 55 53 49 48 47 46 47 49 49 51 52 56 60 59 57 53 53
53 53 53 53 54 54 54 53 52 54 55 61 53 51 53 58 43 50 51 55 55 51 58 59 58 59 57 57 52 49 46 51 59 51 50 50 54 57 56 53 51 51 49 46 47 49 48 50 51 50 49 50 51 49
53 53 53 53 54 54 54 53 53 53 57 55 51 41 53 54 56 57 59 56 64 64 62 62 61 59 63 56 59 48 55 55 48 47 45 55 55 57 58 59 58 56 51 50 51 48 48 48 47 48 46 46 48 47
53 53 53 53 54 53 53 53 53 57 58 53 54 44 56 66 68 68 70 64 64 64 63 60 61 60 58 52 55 52 46 43 47 46 56 58 57 58 58 58 59 58 59 58 55 53 50 50 48 50 49 48 47 46
53 53 55 53 53 53 52 53 54 57 54 52 53 54 65 64 68 68 68 65 66 59 66 64 58 54 53 57 50 47 45 39 49 58 62 60 58 59 58 60 59 60 59 60 60 58 54 52 53 51 48 50 53 51
52 62 53 53 53 52 53 54 53 50 52 51 57 63 63 66 66 69 70 70 68 61 61 62 52 52 59 54 48 54 50 57 60 62 63 60 60 60 60 60 59 59 59 59 59 59 59 57 56 57 52 54 58 56
57 60 53 52 53 53 53 53 51 51 50 57 59 68 68 69 69 70 70 68 66 63 64 60 62 54 53 50 56 60 62 63 65 64 65 62 60 60 62 60 60 60 59 59 59 59 60 59 58 56 57 58 58 59
59 58 53 52 53 52 50 51 52 51 59 65 68 68 68 70 71 69 71 69 70 72 67 62 56 57 60 64 63 62 63 64 63 63 64 62 61 60 60 60 60 60 59 58 58 60 61 59 60 62 62 60 58 62
52 52 53 53 53 50 50 52 56 53 60 68 67 66 67 69 71 69 69 66 66 66 62 59 61 66 66 66 67 65 66 66 65 63 63 65 66 60 60 62 64 60 63 61 62 54 63 64 64 62 63 60 61 60
53 56 53 53 51 51 51 52 56 61 66 64 68 67 68 68 67 66 65 67 64 64 64 67 68 67 66 67 68 68 66 66 66 67 64 66 65 66 63 64 62 66 63 62 60 60 59 60 62 64 64 63 63 63
57 55 55 53 52 53 50 54 55 65 63 66 65 65 64 64 65 66 68 63 65 68 69 69 68 64 63 63 64 66 67 65 66 64 52 57 63 63 64 66 65 65 62 61 62 63 61 62 61 63 62 62 61 62
53 54 53 55 51 48 48 58 56 65 61 65 64 61 63 65 67 66 62 66 70 73 71 70 67 66 67 67 66 66 65 65 67 68 67 68 68 67 66 65 67 65 62 62 65 65 62 49 56 60 64 62 62 61
53 53 51 50 52 45 53 54 63 63 65 63 63 59 64 65 67 63 61 68 71 69 68 64 66 64 67 65 67 67 67 68 69 69 68 67 66 64 66 66 67 67 64 66 65 64 64 63 50 63 62 61 61 60
46 45 46 40 56 51 50 56 61 62 60 64 61 61 62 64 60 59 61 70 68 67 68 68 68 69 69 69 71 70 69 69 68 67 67 69 68 65 64 65 66 67 68 63 62 63 63 64 64 62 61 60 58 58
40 48 43 52 56 51 56 55 57 59 62 60 63 64 62 61 56 58 67 69 68 68 68 68 68 69 70 73 71 70 70 71 70 68 67 69 67 66 64 61 61 60 65 65 65 63 62 63 62 58 60 58 47 57
41 47 54 64 60 55 51 53 60 61 59 60 64 60 58 56 58 67 73 72 70 71 72 74 73 73 73 73 74 75 74 72 70 72 70 70 71 72 70 65 61 65 64 64 64 63 61 60 60 60 60 61 61 62
50 54 52 55 53 52 49 49 55 59 62 69 68 60 59 61 63 73 75 74 75 75 77 77 77 78 77 75 74 71 70 70 68 69 69 69 69 69 67 69 67 47 64 66 66 66 64 62 62 61 60 60 61 63
53 61 60 52 49 50 52 53 56 66 71 70 65 66 68 73 76 76 76 76 76 76 74 73 73 75 75 74 73 73 71 70 65 60 60 61 61 63 66 66 64 63 64 64 45 51 59 60 61 62 61 62 62 64
55 60 57 57 54 56 63 66 66 72 74 73 73 73 72 75 78 78 77 74 73 75 77 77 74 74 72 71 69 69 73 73 72 69 64 63 65 68 65 64 64 64 64 64 65 65 42 55 59 62 61 63 64 63
61 61 58 60 61 67 71 72 73 73 72 71 74 70 70 73 77 76 75 76 77 76 74 74 75 77 75 74 71 68 68 72 72 71 72 72 70 67 65 65 65 65 65 65 65 65 65 62 62 62 62 61 62 60
57 57 57 56 63 68 72 66 69 68 69 69 69 72 71 69 69 72 76 75 74 73 66 72 75 75 78 78 77 77 54 73 68 69 68 69 68 67 67 67 67 66 65 64 65 64 63 62 62 62 62 61 61 62
57 60 56 55 59 63 67 64 66 66 68 68 69 70 72 72 68 74 75 77 77 78 76 77 78 79 76 76 75 72 63 73 62 49 49 50 51 57 66 68 67 66 64 64 65 65 63 62 63 62 62 62 62 61
MSLP
1024.98 1024.59 1024.12 1023.68 1023.23 1022.77 1022.37 1022.02 1021.80 1021.47 1021.23 1021.03 1020.76 1020.53 1020.42 1020.27 1019.99 1019.08 1019.18 1019.22 1018.38 1017.33 1017.11 1017.58 1017.76 1017.31 1017.01 1016.72 1016.63 1016.89 1016.61 1016.52 1014.70 1012.98 1011.91 1010.93 1010.09 1009.89 1009.85 1009.56 1009.19 1008.63 1008.40 1007.69 1007.65 1007.26 1007.83 1009.29 1008.97 1010.45 1012.83 1012.79 1012.69 1011.95
1024.88 1024.44 1024.00 1023.60 1023.23 1022.79 1022.40 1022.17 1021.93 1021.65 1021.41 1021.21 1021.00 1020.77 1020.67 1020.51 1020.25 1019.86 1018.66 1019.24 1019.17 1018.02 1017.44 1018.01 1017.73 1017.54 1017.32 1017.08 1016.50 1016.45 1016.58 1016.62 1016.45 1015.05 1013.41 1012.37 1011.24 1011.15 1010.51 1009.53 1010.65 1010.21 1009.38 1008.95 1008.62 1008.61 1010.12 1010.71 1011.94 1013.12 1013.59 1013.47 1013.08 1012.47
1024.71 1024.27 1023.87 1023.53 1023.21 1022.80 1022.43 1022.22 1022.00 1021.75 1021.54 1021.29 1021.05 1020.84 1020.83 1020.75 1020.47 1019.97 1019.21 1019.32 1018.57 1017.82 1017.10 1016.71 1016.76 1017.46 1017.49 1017.37 1017.05 1016.59 1016.44 1016.86 1016.54 1016.46 1015.15 1013.74 1012.63 1012.68 1010.99 1010.63 1010.93 1010.97 1011.27 1010.40 1010.31 1009.96 1010.64 1010.91 1011.79 1012.66 1013.39 1013.45 1013.11 1012.59
1024.51 1024.11 1023.66 1023.37 1023.11 1022.74 1022.37 1022.20 1022.04 1021.83 1021.61 1021.40 1021.19 1021.16 1021.11 1021.01 1020.74 1020.29 1019.30 1019.53 1018.89 1018.37 1016.74 1016.89 1017.29 1017.25 1017.77 1017.70 1017.43 1017.02 1016.99 1017.25 1016.78 1016.14 1014.64 1013.78 1013.29 1013.92 1012.53 1012.37 1012.25 1011.40 1012.01 1011.12 1010.75 1010.61 1011.32 1010.87 1011.94 1012.55 1012.69 1012.97 1012.87 1012.47
1024.27 1023.91 1023.49 1023.18 1022.91 1022.62 1022.31 1022.13 1022.00 1021.83 1021.61 1021.40 1021.23 1021.21 1021.22 1021.13 1020.98 1020.20 1019.73 1020.07 1019.84 1019.19 1017.21 1016.61 1017.45 1017.95 1017.54 1017.49 1017.45 1017.35 1017.04 1016.84 1016.24 1015.77 1014.60 1014.20 1014.49 1014.51 1013.35 1013.35 1012.62 1012.45 1012.38 1011.90 1011.21 1012.13 1012.71 1012.23 1012.41 1012.75 1012.59 1012.81 1012.73 1012.39
1023.94 1023.70 1023.37 1022.99 1022.70 1022.48 1022.24 1022.01 1021.87 1021.77 1021.63 1021.43 1021.22 1021.17 1021.19 1021.07 1020.80 1019.69 1019.21 1019.87 1019.80 1019.59 1018.13 1016.49 1017.82 1018.43 1018.02 1017.69 1017.45 1017.34 1017.04 1016.81 1016.32 1015.81 1015.34 1015.17 1015.64 1015.77 1014.74 1013.51 1013.29 1013.54 1013.83 1013.65 1013.06 1013.01 1013.08 1013.09 1012.84 1012.59 1012.42 1012.51 1012.41 1012.22
1023.67 1023.43 1023.13 1022.80 1022.49 1022.28 1022.11 1021.93 1021.77 1021.64 1021.57 1021.45 1021.37 1021.29 1021.19 1021.00 1020.07 1019.71 1020.01 1019.96 1020.32 1019.71 1018.46 1017.22 1017.68 1018.70 1018.67 1018.11 1017.34 1016.91 1016.94 1016.55 1016.68 1016.25 1015.98 1015.65 1015.69 1016.71 1015.82 1014.64 1014.15 1014.79 1014.91 1014.61 1013.99 1013.58 1012.94 1012.56 1011.99 1011.93 1012.35 1012.13 1012.09 1011.67
1023.32 1023.06 1022.74 1022.51 1022.22 1021.97 1021.81 1021.68 1021.52 1021.42 1021.39 1021.40 1021.33 1021.25 1021.13 1020.98 1020.85 1020.15 1019.94 1020.49 1020.25 1019.32 1018.75 1018.39 1018.63 1018.83 1019.43 1018.51 1017.85 1017.44 1017.17 1016.75 1016.89 1016.39 1016.53 1016.60 1017.02 1017.38 1016.92 1016.39 1016.66 1016.39 1015.92 1015.32 1014.56 1013.49 1012.69 1012.20 1011.99 1011.77 1011.91 1011.72 1011.59 1011.39
1022.91 1022.68 1022.41 1022.09 1021.85 1021.70 1021.50 1021.35 1021.24 1021.16 1021.09 1021.11 1021.09 1021.07 1020.76 1020.47 1020.05 1020.19 1020.51 1020.50 1019.88 1019.87 1018.72 1018.07 1018.39 1019.08 1019.55 1019.23 1018.30 1017.88 1017.49 1017.25 1017.00 1017.31 1018.21 1018.67 1018.25 1018.46 1018.49 1018.23 1017.69 1016.74 1016.24 1015.11 1014.27 1013.36 1012.73 1011.65 1011.43 1011.35 1011.51 1011.28 1011.40 1011.46
1022.51 1022.29 1021.99 1021.70 1021.39 1021.22 1021.11 1020.90 1020.87 1020.89 1020.89 1020.81 1020.63 1020.41 1019.76 1019.83 1020.31 1020.55 1020.44 1019.76 1019.41 1018.96 1018.99 1017.61 1017.76 1018.23 1019.15 1019.10 1018.72 1018.41 1018.02 1018.35 1018.04 1018.68 1019.21 1019.09 1018.77 1018.78 1018.71 1018.41 1017.31 1016.19 1014.75 1014.22 1014.16 1013.47 1012.55 1011.81 1011.11 1010.97 1011.27 1011.04 1011.47 1011.65
1022.11 1021.84 1021.54 1021.23 1020.91 1020.74 1020.66 1020.58 1020.55 1020.63 1020.75 1019.99 1019.51 1019.31 1019.75 1020.28 1020.15 1019.45 1018.96 1018.57 1018.11 1017.64 1017.03 1016.47 1016.34 1016.54 1018.56 1018.31 1018.27 1018.80 1018.45 1018.44 1017.85 1017.66 1018.17 1018.13 1018.02 1017.56 1017.99 1017.75 1017.36 1016.33 1013.92 1012.67 1012.65 1012.60 1011.62 1010.81 1010.59 1010.63 1011.13 1011.36 1011.65 1012.06
1021.75 1021.47 1021.15 1020.83 1020.53 1020.34 1020.29 1020.31 1020.41 1020.21 1019.30 1019.72 1019.75 1019.57 1019.57 1019.21 1018.55 1017.97 1017.16 1017.56 1017.36 1016.23 1015.77 1015.17 1015.14 1015.90 1017.09 1017.81 1017.67 1018.27 1017.06 1017.07 1016.25 1016.69 1016.57 1016.49 1016.57 1016.35 1016.37 1016.96 1016.81 1016.69 1015.72 1014.39 1013.61 1013.07 1012.50 1012.36 1011.81 1011.48 1011.70 1012.10 1012.36 1012.85
1021.28 1021.10 1020.81 1020.55 1020.29 1020.15 1020.13 1020.17 1020.21 1020.04 1019.83 1019.31 1019.56 1018.69 1017.92 1017.00 1016.29 1015.22 1014.37 1014.23 1014.37 1014.95 1014.62 1014.58 1014.47 1015.06 1015.93 1016.12 1016.15 1016.47 1015.73 1014.78 1015.38 1014.77 1014.85 1015.23 1015.69 1015.75 1015.81 1016.10 1016.06 1016.21 1016.15 1015.70 1015.37 1014.63 1013.96 1013.29 1012.98 1012.87 1013.46 1013.87 1013.32 1013.78
1020.79 1020.61 1020.38 1020.21 1020.13 1019.99 1019.85 1019.86 1019.99 1020.26 1019.69 1018.51 1017.93 1017.11 1015.92 1014.29 1013.53 1012.81 1012.58 1013.14 1012.95 1013.05 1013.36 1013.55 1013.67 1014.05 1014.36 1014.53 1014.62 1014.49 1014.69 1014.72 1013.90 1013.59 1014.03 1014.48 1015.39 1015.45 1015.49 1015.43 1015.22 1015.12 1015.42 1015.69 1015.55 1015.48 1015.28 1014.91 1014.50 1014.67 1015.33 1015.77 1015.27 1015.40
1020.33 1020.11 1019.90 1019.52 1019.70 1019.53 1019.30 1019.56 1019.83 1019.71 1018.76 1017.72 1016.89 1015.11 1013.33 1011.87 1011.52 1011.33 1011.51 1011.96 1012.39 1012.77 1012.89 1013.20 1013.36 1013.57 1013.52 1014.01 1014.17 1014.25 1014.08 1013.76 1013.67 1013.68 1013.79 1014.29 1015.09 1015.28 1015.29 1015.27 1015.18 1015.14 1014.87 1014.58 1015.09 1015.55 1015.54 1015.47 1015.78 1015.90 1016.07 1016.25 1016.17 1016.16
1019.90 1019.66 1019.60 1019.64 1019.45 1019.26 1019.31 1019.56 1019.82 1019.39 1018.42 1017.33 1015.93 1013.73 1011.78 1011.15 1009.83 1010.32 1010.56 1010.94 1011.97 1012.60 1012.58 1012.66 1012.49 1012.72 1012.60 1012.76 1013.09 1012.99 1013.09 1013.19 1013.16 1013.20 1013.49 1014.35 1014.81 1015.06 1015.25 1015.19 1015.21 1015.22 1015.13 1014.95 1014.83 1014.81 1015.37 1015.47 1015.29 1015.64 1016.32 1016.06 1016.11 1016.21
1019.67 1019.03 1019.44 1019.49 1019.36 1019.41 1019.50 1019.21 1019.19 1018.64 1017.29 1015.73 1013.53 1012.36 1011.49 1010.54 1009.83 1009.61 1009.91 1010.13 1011.48 1012.00 1011.22 1011.55 1011.63 1011.42 1012.11 1011.80 1012.21 1012.50 1012.24 1012.10 1012.55 1013.01 1013.43 1014.20 1014.47 1014.75 1015.07 1015.23 1015.27 1015.35 1015.33 1015.26 1015.18 1015.04 1014.83 1015.09 1015.19 1015.02 1015.32 1015.39 1015.37 1015.58
1019.01 1018.71 1019.22 1019.38 1019.35 1019.45 1019.41 1019.01 1018.47 1017.39 1015.58 1013.59 1012.17 1010.36 1010.32 1010.00 1009.49 1009.45 1009.86 1010.52 1010.89 1010.92 1010.99 1010.76 1011.23 1011.19 1010.81 1010.72 1010.75 1011.23 1011.75 1012.14 1012.47 1012.83 1013.27 1013.82 1014.33 1014.73 1014.95 1015.13 1015.29 1015.33 1015.39 1015.39 1015.26 1015.06 1014.94 1014.64 1014.66 1015.12 1015.29 1015.32 1015.24 1014.94
1018.26 1018.41 1018.95 1019.14 1019.17 1019.23 1018.72 1018.29 1017.79 1015.97 1013.27 1011.84 1010.75 1010.32 1009.98 1009.39 1009.51 1009.78 1009.78 1010.19 1010.41 1010.63 1010.65 1010.61 1010.41 1009.96 1009.91 1010.25 1010.33 1010.88 1011.47 1011.80 1012.12 1012.75 1013.05 1013.76 1014.17 1014.46 1014.81 1015.10 1015.30 1015.35 1015.41 1015.45 1015.39 1015.05 1014.83 1015.03 1014.88 1014.99 1014.87 1014.82 1014.67 1014.36
1018.32 1018.26 1018.33 1018.45 1018.88 1018.79 1018.05 1017.12 1016.72 1015.02 1012.18 1010.49 1010.31 1009.68 1009.42 1008.95 1009.27 1009.42 1009.61 1010.08 1010.24 1010.18 1009.76 1009.57 1009.11 1009.20 1009.58 1010.08 1010.50 1010.88 1011.34 1011.92 1012.19 1012.41 1012.59 1012.99 1013.63 1014.29 1014.59 1014.66 1014.65 1015.19 1014.87 1014.98 1014.91 1015.34 1014.79 1014.53 1014.65 1014.85 1014.86 1014.71 1014.50 1014.46
1017.97 1017.75 1018.16 1018.39 1018.61 1018.34 1017.32 1016.08 1014.72 1013.07 1011.17 1010.26 1009.58 1009.41 1008.74 1009.07 1008.86 1008.95 1009.17 1009.74 1009.61 1008.79 1008.28 1008.48 1008.81 1009.51 1010.09 1010.43 1010.83 1011.25 1011.71 1011.96 1012.02 1012.13 1012.32 1012.44 1013.29 1013.68 1014.11 1014.44 1014.77 1014.70 1014.69 1014.77 1014.97 1014.99 1014.98 1014.94 1014.91 1014.76 1014.73 1014.69 1014.68 1014.89
1017.28 1017.61 1017.73 1017.98 1017.70 1017.11 1016.45 1015.29 1014.21 1012.12 1011.17 1009.50 1009.37 1009.12 1008.54 1008.17 1008.26 1008.57 1008.97 1009.02 1008.17 1007.68 1007.87 1008.24 1008.87 1009.87 1010.49 1010.85 1011.19 1011.47 1011.73 1012.25 1012.49 1012.72 1013.08 1013.23 1013.15 1013.45 1013.70 1013.99 1014.30 1014.39 1014.63 1014.94 1015.09 1015.06 1015.22 1015.33 1015.51 1015.31 1015.23 1015.29 1015.40 1015.38
1017.34 1017.50 1017.35 1017.10 1016.82 1015.99 1014.87 1013.99 1012.83 1010.65 1009.53 1008.56 1008.86 1008.47 1008.06 1008.11 1008.38 1009.04 1008.35 1007.77 1007.26 1007.51 1007.97 1008.32 1009.16 1009.81 1010.05 1010.68 1011.21 1011.68 1012.05 1012.16 1011.98 1012.10 1012.50 1012.62 1012.93 1013.42 1013.71 1014.04 1014.25 1014.48 1014.62 1014.95 1015.29 1015.21 1015.30 1016.06 1015.83 1015.63 1015.52 1015.41 1015.37 1015.26
1017.04 1016.90 1016.59 1015.96 1015.57 1014.79 1014.25 1012.77 1011.09 1009.74 1008.71 1008.26 1007.85 1007.66 1007.61 1007.89 1008.31 1007.94 1007.14 1006.61 1006.69 1007.51 1008.06 1008.79 1009.34 1009.81 1010.15 1010.55 1010.56 1010.94 1011.49 1011.73 1011.67 1012.02 1012.38 1012.54 1012.79 1013.41 1013.69 1014.00 1014.39 1014.75 1015.07 1015.22 1015.36 1015.49 1015.57 1015.62 1016.08 1015.50 1015.56 1015.51 1015.35 1015.21
1016.63 1016.33 1016.12 1014.96 1014.15 1013.71 1012.83 1011.16 1009.76 1008.85 1008.05 1007.46 1007.33 1007.29 1007.50 1007.99 1007.39 1006.83 1006.23 1005.91 1006.66 1007.19 1007.64 1008.28 1008.66 1008.91 1008.85 1009.11 1009.44 1010.10 1010.95 1011.17 1011.15 1011.52 1012.33 1012.44 1012.64 1013.30 1013.73 1014.15 1014.53 1014.85 1015.18 1015.25 1015.40 1015.53 1015.67 1015.77 1015.75 1015.71 1015.63 1015.46 1015.50 1015.24
1015.50 1014.78 1014.43 1013.29 1012.68 1012.58 1011.43 1010.48 1009.53 1008.29 1007.53 1006.95 1006.64 1007.13 1007.49 1007.15 1006.63 1005.87 1005.48 1005.65 1006.24 1006.74 1007.33 1007.71 1007.89 1008.15 1008.23 1008.22 1008.66 1009.32 1010.15 1010.81 1010.95 1011.23 1012.08 1012.36 1012.65 1012.85 1013.24 1013.77 1014.21 1014.83 1015.32 1015.30 1015.33 1015.56 1015.69 1015.73 1015.69 1015.72 1015.39 1015.29 1015.55 1015.24
1014.25 1013.36 1012.79 1012.15 1011.87 1011.76 1011.47 1010.99 1009.85 1008.74 1007.50 1006.33 1005.97 1006.43 1006.39 1005.98 1005.37 1005.12 1005.25 1005.69 1005.97 1006.35 1006.73 1007.09 1007.40 1007.49 1007.44 1007.94 1008.47 1009.06 1009.73 1010.52 1010.92 1011.07 1011.86 1012.34 1012.55 1012.91 1013.18 1013.50 1013.91 1014.34 1015.17 1015.35 1015.46 1015.56 1015.52 1015.44 1015.35 1015.28 1015.14 1014.94 1014.73 1014.47
1012.72 1012.01 1011.40 1011.40 1011.57 1011.50 1011.10 1010.54 1009.26 1007.55 1006.55 1005.81 1005.78 1005.46 1005.29 1004.97 1004.73 1004.88 1005.05 1005.57 1005.82 1006.11 1006.26 1006.72 1007.12 1007.15 1007.40 1008.11 1008.84 1009.66 1010.28 1011.00 1011.67 1011.91 1012.31 1012.62 1013.00 1013.35 1013.74 1013.93 1014.23 1015.12 1015.15 1015.33 1015.42 1015.55 1015.53 1015.40 1015.28 1015.18 1015.01 1014.69 1014.36 1014.04
1011.40 1010.55 1010.55 1010.63 1010.87 1010.65 1009.94 1009.17 1008.09 1006.65 1005.89 1005.55 1005.27 1004.83 1004.70 1004.81 1004.91 1005.01 1005.31 1005.56 1005.99 1005.89 1006.03 1006.57 1007.19 1007.67 1007.99 1008.62 1009.17 1009.67 1010.29 1010.63 1011.00 1011.43 1011.68 1012.00 1012.70 1013.29 1013.76 1014.05 1014.63 1015.05 1015.23 1015.27 1015.85 1015.97 1015.76 1015.69 1015.37 1015.20 1015.03 1014.63 1014.18 1013.44
1009.96 1009.95 1009.63 1009.33 1009.11 1008.17 1007.22 1007.03 1006.37 1005.86 1005.50 1005.39 1005.26 1005.05 1004.95 1004.69 1004.91 1005.36 1005.35 1005.69 1005.74 1005.53 1005.61 1005.93 1006.85 1007.17 1007.66 1008.22 1008.89 1009.60 1009.97 1010.16 1010.40 1010.66 1011.01 1011.37 1011.77 1012.41 1013.43 1013.89 1014.24 1014.52 1014.77 1014.87 1014.78 1014.78 1015.72 1015.59 1015.01 1014.83 1014.34 1013.81 1013.19 1012.71
1008.98 1008.90 1008.53 1007.95 1007.15 1006.19 1005.66 1005.65 1005.61 1005.44 1005.33 1005.20 1005.01 1004.99 1004.73 1004.69 1004.75 1005.12 1005.19 1005.25 1005.35 1005.59 1005.78 1005.95 1006.31 1006.42 1006.96 1007.45 1008.19 1008.99 1009.52 1010.09 1010.44 1010.86 1011.11 1011.40 1011.90 1012.73 1013.36 1013.77 1014.06 1014.31 1014.54 1014.59 1014.56 1014.51 1014.64 1014.63 1014.33 1014.00 1013.57 1013.22 1012.83 1012.42
1008.08 1007.72 1007.65 1007.06 1006.09 1005.69 1005.32 1005.22 1004.79 1004.54 1004.35 1004.43 1004.39 1004.51 1004.68 1004.79 1004.25 1004.57 1004.94 1005.30 1005.35 1005.37 1005.45 1005.66 1005.91 1006.26 1006.75 1007.18 1007.86 1008.38 1009.19 1009.67 1010.72 1011.30 1011.79 1011.99 1012.48 1013.05 1013.48 1013.77 1014.05 1014.26 1014.43 1014.41 1014.36 1014.27 1014.23 1014.19 1013.83 1013.46 1013.00 1012.60 1012.30 1012.00
1007.20 1007.01 1007.10 1006.83 1005.99 1004.89 1004.59 1004.83 1004.35 1003.93 1003.80 1003.73 1003.77 1003.98 1003.91 1003.91 1003.79 1004.31 1005.25 1005.36 1005.12 1005.01 1005.25 1005.66 1005.93 1006.33 1007.00 1007.53 1008.13 1008.79 1009.25 1009.80 1010.78 1011.55 1012.17 1012.57 1012.98 1013.34 1013.52 1013.74 1014.03 1014.24 1014.37 1014.27 1014.05 1013.94 1013.84 1013.59 1013.17 1012.85 1012.51 1012.14 1011.79 1011.60
Wind_Speed
13 12 13 14 14 11 11 8 10 10 10 9 9 7 6 8 9 7 4 5 6 3 4 1 0 2 0 2 4 3 3 4 4 5 3 3 4 3 3 4 2 6 8 8 10 9 9 13 5 5 5 7 12 12
11 11 12 13 13 11 9 7 8 8 7 7 6 4 4 6 8 7 2 2 4 4 7 2 4 6 6 7 7 4 4 5 2 4 1 3 4 2 5 4 5 7 5 8 6 6 6 9 9 4 4 6 8 13
11 11 9 11 12 10 8 7 8 7 6 7 6 2 5 5 6 8 3 5 3 3 5 5 3 2 2 7 8 5 4 3 2 3 4 3 3 5 5 3 5 4 3 7 6 8 3 3 6 5 4 7 10 13
11 11 9 9 10 11 7 6 7 6 5 5 4 5 4 5 6 7 3 4 3 3 5 7 1 3 3 1 5 5 5 4 2 4 3 3 3 2 3 6 7 7 3 6 9 8 7 4 4 10 9 9 12 14
10 10 10 9 9 10 7 6 6 6 5 3 1 3 2 3 4 5 2 3 4 6 5 4 6 7 7 2 3 5 4 3 2 2 3 3 2 4 5 5 8 5 8 8 7 7 6 9 9 14 13 11 13 14
9 9 10 10 8 8 8 6 5 5 4 2 1 4 1 5 8 4 5 2 3 4 4 2 5 7 6 2 4 5 4 3 3 4 3 1 2 4 5 6 5 6 7 11 11 11 11 13 15 15 10 11 14 13
10 9 9 10 9 8 8 8 5 3 2 1 1 1 3 6 8 4 6 6 4 2 3 1 4 1 6 4 2 3 5 1 4 3 3 4 2 3 4 9 6 7 10 13 14 14 15 14 11 5 12 11 11 11
10 9 10 10 10 8 6 7 7 5 3 5 5 5 5 7 5 3 3 1 5 2 2 1 0 1 5 3 2 1 1 2 3 2 2 4 2 2 4 6 14 16 17 18 20 19 18 16 16 14 12 10 11 9
10 10 10 10 10 9 8 6 7 6 4 4 6 6 4 3 2 2 3 5 2 2 2 1 1 1 2 2 2 1 2 2 2 4 3 5 2 1 10 17 19 20 13 14 17 17 16 16 15 13 13 10 10 9
11 10 10 10 11 10 9 7 5 6 4 4 5 4 2 2 4 5 2 3 4 3 2 2 5 3 2 0 1 1 2 3 2 1 1 1 2 8 11 14 13 16 19 19 18 19 20 20 16 15 14 9 9 5
11 11 11 12 13 10 8 7 5 4 6 4 2 1 4 5 2 2 2 2 0 2 5 2 2 3 5 2 2 1 2 3 2 3 1 1 3 7 5 8 10 17 22 3 14 17 16 15 11 10 12 7 8 4
10 11 11 12 13 7 4 5 6 4 2 4 3 1 2 4 3 4 2 2 3 1 3 3 2 2 4 3 3 5 3 3 3 5 4 0 4 10 6 10 7 12 20 22 18 13 11 12 5 8 6 1 11 10
9 10 10 11 8 4 4 6 10 5 5 3 2 3 3 3 3 3 3 2 2 6 6 5 4 4 5 5 3 5 6 1 1 4 1 2 7 9 10 5 6 7 11 13 16 16 18 16 18 19 14 11 14 12
10 11 10 9 6 6 5 7 9 5 5 3 4 3 5 4 5 4 1 2 2 3 4 4 2 4 1 5 0 4 2 3 3 2 3 5 7 8 8 9 11 12 8 10 15 13 12 13 16 18 18 14 13 14
11 11 10 2 5 9 6 8 10 5 3 4 4 5 7 6 3 5 1 2 3 3 4 3 3 4 3 2 2 1 3 2 1 2 1 6 4 6 7 8 9 10 10 10 10 11 9 11 14 13 12 9 10 11
10 10 1 2 5 3 8 8 5 2 3 4 6 6 6 5 6 3 5 4 5 5 3 2 2 3 4 2 4 2 1 3 3 3 3 5 2 2 4 6 7 9 10 10 11 8 9 7 8 11 10 8 9 10
6 3 7 3 4 8 8 2 2 4 5 5 6 7 9 8 6 5 2 2 7 5 3 2 4 1 2 3 1 4 4 3 4 4 4 3 1 2 2 3 5 6 7 9 10 8 7 7 5 9 9 6 9 6
4 5 9 6 4 3 2 3 3 4 7 7 6 5 6 6 6 3 3 5 6 4 3 1 2 5 3 2 2 3 3 4 3 3 2 3 4 4 2 2 2 4 5 7 7 7 7 6 5 5 4 4 6 6
2 1 9 8 3 1 3 5 3 5 7 6 6 6 5 5 2 2 3 5 4 1 2 3 4 4 3 2 2 5 4 4 5 6 4 4 4 4 4 3 2 2 4 6 7 6 5 4 5 3 2 4 2 4
10 11 9 8 10 3 3 3 4 5 6 1 3 5 4 4 1 4 4 5 6 4 5 4 3 1 2 3 3 5 5 4 4 4 4 4 3 5 5 3 2 2 3 4 4 3 2 1 3 3 3 5 5 3
4 4 10 8 3 4 3 3 4 6 5 4 2 3 3 3 5 5 4 6 6 4 4 4 2 5 3 5 5 6 6 5 4 2 4 1 4 3 4 4 4 1 4 4 5 3 1 4 3 4 3 4 4 4
2 8 2 3 3 4 4 4 5 6 4 5 3 3 4 4 3 3 3 6 4 6 4 4 6 8 7 9 8 8 7 6 2 2 3 3 4 4 3 3 2 2 4 4 3 2 3 4 5 4 5 4 2 4
3 3 2 4 4 3 6 3 6 6 5 2 2 4 3 2 1 4 4 4 3 1 4 6 9 8 8 9 9 8 6 6 4 4 3 4 3 3 3 3 1 1 3 3 0 1 3 2 3 5 2 2 4 4
2 3 3 4 7 4 3 5 5 4 3 4 3 4 1 1 3 4 4 2 3 5 6 9 9 8 7 9 8 8 7 6 4 3 3 4 4 4 3 3 2 2 2 2 1 1 1 2 3 2 4 4 4 4
2 3 4 6 4 4 4 5 7 6 7 7 4 5 3 3 3 3 2 1 4 6 8 9 9 9 8 9 7 7 8 7 5 5 5 4 3 5 4 4 3 1 2 3 3 1 1 1 2 3 4 4 6 7
4 5 7 6 5 5 4 4 6 5 6 3 5 2 3 3 4 3 2 3 5 7 9 10 10 9 8 6 6 7 8 7 5 5 5 5 5 5 4 4 4 5 3 3 2 2 2 2 3 4 5 3 7 8
5 7 5 4 2 1 1 3 7 7 7 4 3 5 4 4 2 1 1 2 3 5 8 9 8 8 6 6 4 4 6 6 6 1 6 5 4 2 2 3 4 3 5 4 4 3 4 5 5 5 6 6 6 7
6 4 7 6 4 2 2 2 6 6 5 2 2 3 2 1 3 2 1 3 4 5 7 8 7 5 4 7 7 7 8 8 7 7 6 5 4 3 3 2 4 7 3 2 2 2 4 5 4 5 6 7 8 9
6 6 5 6 3 5 7 7 6 6 3 3 2 3 2 1 1 0 2 4 4 6 8 8 7 5 7 8 8 8 9 9 11 11 10 7 7 6 5 5 7 6 5 5 6 6 6 7 7 8 10 9 10 11
5 6 7 8 6 8 7 8 6 6 6 5 6 5 5 4 1 0 3 5 5 5 7 8 9 9 10 10 9 9 8 7 6 5 6 5 5 6 7 6 6 6 5 5 5 5 9 8 10 10 9 9 9 10
3 7 6 7 6 6 8 7 7 6 7 8 8 6 7 4 2 4 5 4 4 5 6 8 8 9 10 10 10 10 9 6 6 5 3 4 5 7 7 7 6 5 5 5 4 4 4 5 7 9 10 12 14 13
3 6 4 5 5 4 2 3 4 5 6 8 7 4 3 4 5 4 4 5 6 7 7 7 8 8 7 6 7 6 1 10 9 8 9 6 7 8 8 6 6 5 5 5 5 5 5 7 9 11 12 14 14 15
5 5 4 3 5 5 5 5 4 4 5 5 5 5 6 4 2 3 4 4 4 4 6 7 5 5 8 7 7 6 4 9 12 11 9 8 9 7 6 6 5 6 5 5 5 5 7 10 11 12 13 14 15 15
Wind_Direction
350 354 350 350 349 346 343 0 4 3 10 20 31 49 67 40 15 326 67 10 325 333 97 200 116 309 154 17 41 347 138 355 287 248 235 197 277 130 266 48 263 207 213 203 241 236 225 6 62 344 12 337 324 330
337 354 349 347 343 344 344 1 353 356 8 15 20 53 72 23 6 313 44 20 322 281 26 335 296 299 316 341 333 99 91 116 335 277 336 275 208 188 342 216 173 244 317 346 331 51 54 82 93 61 357 335 329 322
332 340 345 343 341 338 344 348 352 357 4 9 10 62 97 29 8 339 25 359 259 272 169 209 88 75 313 268 298 312 88 66 123 345 330 337 310 313 259 231 327 182 300 271 322 126 46 338 121 91 10 337 333 330
332 328 337 337 339 337 348 347 350 353 357 14 36 99 80 38 14 323 14 6 313 297 292 101 162 63 9 240 260 275 71 106 302 256 274 332 310 9 312 340 293 1 327 284 272 275 318 225 50 356 350 345 345 331
321 325 323 333 336 336 336 342 344 346 348 358 30 136 87 29 342 296 63 39 356 318 341 89 106 3 22 140 156 194 210 328 320 247 250 40 333 278 244 279 259 238 280 271 281 48 333 314 334 327 322 338 330 331
313 318 322 323 328 329 330 328 335 346 350 11 128 151 346 325 308 229 187 90 26 335 268 197 98 23 7 122 138 175 193 244 285 306 352 351 76 306 292 294 351 319 302 288 288 308 294 281 292 292 301 327 325 322
307 313 317 318 318 322 323 323 313 313 298 246 177 212 348 348 307 333 11 25 356 293 277 163 123 99 351 284 220 174 194 144 317 330 286 313 23 271 266 262 323 294 280 276 278 279 273 266 266 307 300 307 306 318
305 304 311 309 311 306 308 309 308 280 260 245 258 282 292 298 279 238 107 169 298 288 285 136 93 96 360 317 174 301 269 238 206 277 224 324 313 300 261 300 324 308 300 286 277 270 264 269 272 270 279 291 304 305
306 300 299 300 297 301 293 289 297 287 257 259 260 268 266 236 243 35 122 209 327 319 299 295 75 56 329 353 357 300 6 296 291 23 26 333 11 303 312 313 296 282 268 270 282 284 285 262 256 255 267 269 279 300
303 301 294 294 297 289 293 279 270 287 257 274 252 216 217 92 122 138 230 215 190 167 188 282 124 112 185 163 192 208 11 12 28 26 226 9 302 250 280 294 323 325 281 253 246 249 246 250 246 245 256 255 273 300
305 307 304 299 297 291 293 275 235 262 227 219 249 270 62 135 230 227 294 274 274 247 182 230 309 101 169 176 130 11 167 180 201 121 274 359 279 342 3 315 353 353 0 255 233 232 248 239 242 239 240 254 257 113
301 305 309 311 317 312 280 242 196 219 289 26 335 279 175 224 227 255 216 165 220 243 186 254 111 171 143 188 160 181 264 194 215 144 231 319 316 351 10 359 32 35 27 18 32 38 54 50 344 247 266 227 94 94
300 302 309 321 334 333 282 227 212 295 265 196 230 238 216 174 280 252 304 114 295 166 198 187 174 187 160 215 202 195 229 105 164 215 14 38 22 1 9 9 34 76 68 65 37 34 27 53 60 61 51 41 83 73
299 300 298 309 304 339 300 222 196 205 253 232 224 250 232 185 233 216 145 339 353 251 171 197 142 236 134 207 303 246 78 258 264 269 56 61 44 22 21 19 21 35 104 82 73 64 56 47 55 64 61 31 42 71
301 306 313 341 326 316 310 175 180 218 244 239 216 242 219 253 252 261 282 199 164 171 165 169 192 248 160 203 223 237 218 262 194 266 97 90 63 35 34 30 25 25 16 29 96 84 86 93 83 74 90 104 72 59
307 298 142 59 346 334 135 148 182 257 243 237 234 253 233 263 272 166 232 228 152 174 182 237 189 230 213 236 209 233 240 222 208 170 116 137 132 97 45 36 34 40 25 25 19 53 119 105 89 115 112 86 111 126
300 245 148 105 97 130 176 222 188 230 251 227 232 229 270 291 283 322 304 170 146 179 250 175 222 147 93 228 227 175 213 158 127 138 130 111 191 163 115 49 39 43 30 25 22 26 31 126 130 115 115 135 111 100
242 150 161 130 152 152 219 226 250 251 248 236 248 272 219 264 291 275 213 157 184 193 220 245 119 211 236 229 213 153 168 130 146 125 148 149 219 200 198 112 60 34 37 28 12 14 36 14 91 109 99 121 149 154
251 328 190 185 145 239 248 199 214 264 241 257 252 260 261 272 265 273 230 176 212 185 171 205 236 234 225 228 188 147 152 173 171 177 188 208 243 208 188 149 124 45 33 23 13 3 10 32 25 73 202 196 307 39
260 272 267 214 176 203 249 224 204 263 270 344 256 255 255 287 144 208 177 186 190 203 206 221 237 222 213 137 162 149 149 143 173 182 188 170 174 178 184 220 47 105 281 357 10 37 3 85 62 124 315 5 334 33
206 117 110 127 189 242 270 273 245 249 288 266 312 259 273 213 228 212 195 182 204 230 224 215 167 124 101 130 147 151 146 174 190 299 20 149 144 181 153 172 205 327 341 13 358 89 246 48 48 27 52 22 18 42
124 161 169 179 237 207 247 215 255 311 261 270 265 243 257 252 238 187 145 206 243 236 227 169 161 147 152 165 157 181 152 181 191 138 188 170 169 182 192 180 201 341 8 9 356 42 76 43 3 22 21 47 323 49
135 163 202 218 238 239 263 237 242 222 239 210 197 240 214 212 102 161 234 232 272 143 163 159 151 163 162 156 159 171 176 197 218 222 147 209 140 154 162 166 176 330 338 76 336 350 60 9 156 312 20 301 344 337
77 190 220 225 206 244 232 249 245 262 233 237 224 265 207 198 167 233 258 232 137 131 161 148 155 155 166 176 185 181 188 207 232 154 179 184 172 167 182 162 162 66 13 105 105 113 344 16 286 313 15 345 356 348
155 236 186 247 215 234 233 244 232 236 249 255 257 254 159 201 234 237 260 135 155 174 159 166 176 190 193 191 197 180 177 202 210 186 173 215 150 150 168 174 167 89 166 184 178 272 83 285 342 348 333 354 351 339
194 214 190 209 198 209 244 309 321 346 313 267 220 111 188 219 231 239 206 145 180 174 173 182 186 193 214 205 188 188 179 204 190 195 160 186 183 193 183 196 195 168 199 247 180 196 242 282 304 309 304 294 207 272
218 220 210 228 266 108 38 277 246 267 276 250 216 173 215 233 234 118 114 172 158 180 183 184 193 202 203 179 175 143 131 162 185 113 136 175 174 176 211 221 199 147 158 197 201 240 293 298 288 295 301 301 303 309
232 247 212 171 185 151 182 231 272 250 237 249 237 236 268 274 13 62 26 131 154 173 167 173 187 197 155 143 141 141 133 120 127 122 126 138 150 148 124 150 112 93 189 192 241 229 290 298 295 300 301 302 310 318
225 204 190 186 175 205 217 209 234 241 269 248 266 270 273 261 25 88 158 168 158 170 160 155 145 134 135 132 146 147 152 158 160 166 180 176 176 182 181 174 153 185 208 202 176 288 326 315 328 328 320 313 300 289
220 187 209 191 205 222 216 200 234 240 256 286 287 270 249 238 316 170 175 170 183 196 184 171 162 170 163 164 157 159 175 179 181 183 195 199 188 157 169 181 181 186 196 226 241 180 195 242 245 244 266 288 306 326
203 191 220 225 242 245 249 236 246 258 253 253 258 268 287 317 266 202 220 198 203 164 170 171 177 185 179 176 171 169 171 180 173 163 149 141 144 146 166 173 180 183 194 222 245 254 276 281 295 304 305 314 315 309
224 213 206 232 244 238 245 214 236 226 214 221 238 224 218 231 244 152 174 182 192 193 187 187 183 182 189 170 162 162 157 157 164 160 160 150 146 157 163 172 173 177 201 225 237 253 265 287 301 311 311 312 317 322
211 191 205 253 250 231 176 182 255 253 215 218 226 229 244 275 269 99 138 212 224 196 176 185 180 144 152 155 149 126 151 142 144 122 107 115 129 147 165 167 166 186 202 235 253 277 288 300 309 319 315 316 320 325